Regional Weather Roundup
Issued by NWS Little Rock, AR

Home | Current Version | Previous Version | Graphics & Text | Print | Product List | Glossary On
Versions: 1 2 3 4 5 6 7 8 9 10 11 12 13 14 15 16 17 18 19 20 21 22 23 24 25 26 27 28 29 30 31
000
ASUS44 KLZK 231305
RWRLZK

WEATHER ROUNDUP FOR ARKANSAS
NATIONAL WEATHER SERVICE LITTLE ROCK AR
800 AM CDT WED MAY 23 2018

NOTE: "FAIR" INDICATES FEW OR NO CLOUDS BELOW 12,000 FEET WITH NO
SIGNIFICANT WEATHER AND/OR OBSTRUCTIONS TO VISIBILITY.

ARZ001-003-010-029-231400-
NORTHWEST ARKANSAS

CITY           SKY/WX    TMP DP  RH WIND       PRES   REMARKS
FAYETTEVILLE   MOSUNNY   64  64 100 CALM      30.12R
FORT SMITH     CLOUDY    71  70  96 NE6       30.08R
HARRISON       FOG       67  67 100 SE5       30.14R VSB 1/4
BENTONVILLE    SUNNY     71  67  87 SE6       30.14R
ROGERS         SUNNY     71  68  90 E7        30.13R
SILOAM SPGS    SUNNY     69  67  93 CALM      30.12R
HIGHFILL       SUNNY     70  66  87 SE5       30.13R
SPRINGDALE     SUNNY     70  70 100 SE3       30.14R
$$

ARZ004-005-016-231400-
NORTH CENTRAL ARKANSAS

CITY           SKY/WX    TMP DP  RH WIND       PRES   REMARKS
BATESVILLE     PTSUNNY   69  68  96 CALM      30.12R
FLIPPIN        FOG       68  68 100 CALM      30.13R VSB 1/2
MTN HOME       CLOUDY    71  70  96 CALM      30.11R
$$

ARZ040-041-231400-
WEST CENTRAL ARKANSAS

CITY           SKY/WX    TMP DP  RH WIND       PRES   REMARKS
MENA           CLOUDY    70  68  94 CALM      30.12R
MOUNT IDA      FOG       69  69 100 CALM      30.08R VSB 1/4
$$

ARZ009-017-025-026-028-231400-
NORTHEAST ARKANSAS

CITY           SKY/WX    TMP DP  RH WIND       PRES   REMARKS
CORNING        FAIR      73  73 100 NE6       30.11R
JONESBORO      FAIR      76  74  93 E3        30.10R
NEWPORT        FAIR      73  72  96 CALM      30.10R FOG
WALNUT RIDGE     N/A     75  72  90 NE5       30.10R
BLYTHEVILLE    FAIR      76  72  87 VRB3      30.10R
$$

ARZ022-023-033-042-044-231400-
CENTRAL ARKANSAS

CITY           SKY/WX    TMP DP  RH WIND       PRES   REMARKS
LITTLE ROCK    PTSUNNY   74  71  91 CALM      30.09R
N LITTLE ROCK    N/A     73  71  93 S3        30.05R
JACKSONVILLE   PTSUNNY   73  73 100 CALM      30.09R
CONWAY         CLOUDY    72  72 100 CALM      30.09R FOG
SEARCY         FAIR      73  72  96 CALM      30.10R
HOT SPRINGS    CLOUDY    72  71  97 CALM      30.10R
RUSSELLVILLE   CLOUDY    73  71  93 CALM      30.08R
CLINTON        PTSUNNY   68  66  94 CALM      30.11R
$$

ARZ036-231400-
EAST ARKANSAS

CITY           SKY/WX    TMP DP  RH WIND       PRES   REMARKS
WEST MEMPHIS   FAIR      76  73  91 CALM      30.09R
$$

ARZ050-053-066-070-073-231400-
SOUTHWEST ARKANSAS

CITY           SKY/WX    TMP DP  RH WIND       PRES   REMARKS
ARKADELPHIA    FAIR      71  70  96 VRB3      30.09R FOG
CAMDEN         FAIR      70  66  88 CALM      30.08R
TEXARKANA      PTSUNNY   69  69 100 E3        30.08R FOG
EL DORADO      FAIR      72  71  97 CALM      30.08R
DE QUEEN       CLOUDY    71  70  96 E3        30.06R
$$

ARZ056-057-069-231400-
SOUTHEAST ARKANSAS

CITY           SKY/WX    TMP DP  RH WIND       PRES   REMARKS
PINE BLUFF     FAIR      73  69  87 CALM      30.09R
STUTTGART      FAIR      76  72  87 CALM      30.10R
MONTICELLO     FAIR      74  70  87 CALM      30.09R

$$






USA.gov is the U.S. government's official web portal to all federal, state and local government web resources and services.